Mackinac Island, MI

12:12 AM EDT on June 25, 2017 (GMT -0400)
Mackinac Island

Weather History for KMCD - March, 2012

Change the Weather History Date:

Thursday, March 29, 2012

  Actual Average Record
Temperature  
Mean Temperature 35 °F -  
Max Temperature 38 °F 37 °F 54 °F (1981)
Min Temperature 32 °F 24 °F 12 °F (1974)
Degree Days  
Heating Degree Days 30    
Moisture  
Dew Point 23 °F    
Average Humidity 66    
Maximum Humidity 76    
Minimum Humidity 52    
Precipitation  
Precipitation 0.00 in - - ()
Sea Level Pressure  
Sea Level Pressure 30.13 in    
Wind  
Wind Speed 7 mph (NNE)    
Max Wind Speed 12 mph    
Max Gust Speed 20 mph    
Visibility 10 miles    
Events      
Averages and records for this station are not official NWS values.
T = Trace of Precipitation, MM = Missing Value Source: NWS Daily Summary

Daily Weather History Graph

Daily Weather History Graph

Search for Another Location

Airport or City:

Trip Planner

Search our weather history database for the weather conditions in past years. The results will help you decide how hot, cold, wet, or windy it might be!

Date:

Astronomy

Mar. 29, 2012 Rise Set
Actual Time 7:23 AM EDT 8:03 PM EDT
Civil Twilight 6:53 AM EDT 8:33 PM EDT
Nautical Twilight 6:17 AM EDT 9:09 PM EDT
Astronomical Twilight 5:40 AM EDT 9:46 PM EDT
Moon 11:15 AM EDT (3/29) 2:10 AM EDT (3/29)
Length of Visible Light 13h 40m
Length of Day
12h 40m
Waxing Crescent, 39% of the Moon is Illuminated
Mar 29
Waxing Crescent
Mar 30
First Quarter
Apr 6
Full
Apr 13
Last Quarter
Apr 21
New

Hourly Weather History & Observations

Time (EDT) Temp. Windchill Dew Point Humidity Pressure Visibility Wind Dir Wind Speed Gust Speed Precip Events Conditions
12:13 AM 34.5 °F 26.7 °F 26.2 °F 72% 30.01 in 10.0 mi North 10.4 mph 18.4 mph N/A   Overcast
12:33 AM 34.3 °F 26.5 °F 26.1 °F 72% 30.02 in 10.0 mi North 10.4 mph 16.1 mph N/A   Overcast
12:53 AM 34.0 °F 26.0 °F 26.2 °F 73% 30.02 in 10.0 mi North 10.4 mph 16.1 mph N/A   Overcast
1:13 AM 33.8 °F 25.8 °F 26.4 °F 74% 30.02 in 10.0 mi North 10.4 mph - N/A   Overcast
1:33 AM 33.8 °F 27.0 °F 26.4 °F 74% 30.03 in 10.0 mi North 8.1 mph - N/A   Overcast
1:53 AM 33.4 °F 27.3 °F 26.4 °F 75% 30.03 in 10.0 mi North 6.9 mph - N/A   Overcast
2:13 AM 33.4 °F 28.1 °F 26.6 °F 76% 30.04 in 10.0 mi North 5.8 mph 9.2 mph N/A   Overcast
2:33 AM 33.3 °F 26.4 °F 25.9 °F 74% 30.04 in 10.0 mi NNE 8.1 mph - N/A   Overcast
2:53 AM 33.1 °F 26.1 °F 25.3 °F 73% 30.05 in 10.0 mi North 8.1 mph - N/A   Overcast
3:13 AM 33.1 °F 26.1 °F 24.8 °F 72% 30.05 in 10.0 mi NNE 8.1 mph - N/A   Overcast
3:33 AM 32.9 °F 26.7 °F 24.8 °F 72% 30.05 in 10.0 mi NNE 6.9 mph - N/A   Overcast
3:53 AM 32.7 °F 26.4 °F 24.1 °F 71% 30.06 in 10.0 mi NNE 6.9 mph 16.1 mph N/A   Overcast
4:13 AM 32.4 °F 25.3 °F 23.9 °F 71% 30.06 in 10.0 mi North 8.1 mph - N/A   Overcast
4:33 AM 32.4 °F 26.9 °F 23.9 °F 71% 30.07 in 10.0 mi NNE 5.8 mph - N/A   Overcast
4:53 AM 32.0 °F 25.6 °F 23.7 °F 71% 30.08 in 10.0 mi NNE 6.9 mph - N/A   Overcast
5:13 AM 32.0 °F 23.0 °F 22.8 °F 69% 30.08 in 10.0 mi NNE 11.5 mph 17.3 mph N/A   Overcast
5:33 AM 32.0 °F 24.2 °F 23.0 °F 69% 30.08 in 10.0 mi NNE 9.2 mph - N/A   Overcast
5:53 AM 32.0 °F 23.6 °F 23.0 °F 69% 30.09 in 10.0 mi NNE 10.4 mph 17.3 mph N/A   Overcast
6:13 AM 32.0 °F 25.6 °F 23.0 °F 69% 30.09 in 10.0 mi NNE 6.9 mph - N/A   Overcast
6:33 AM 32.0 °F 24.2 °F 22.8 °F 69% 30.10 in 10.0 mi NNE 9.2 mph 17.3 mph N/A   Overcast
6:53 AM 32.0 °F 25.6 °F 22.6 °F 68% 30.11 in 10.0 mi North 6.9 mph - N/A   Overcast
7:13 AM 32.0 °F 24.2 °F 22.8 °F 69% 30.11 in 10.0 mi NNE 9.2 mph - N/A   Overcast
7:33 AM 32.0 °F 24.2 °F 22.8 °F 69% 30.12 in 10.0 mi NNE 9.2 mph 19.6 mph N/A   Overcast
7:53 AM 32.0 °F 23.0 °F 22.8 °F 69% 30.13 in 10.0 mi NE 11.5 mph 16.1 mph N/A   Overcast
8:13 AM 32.0 °F 24.8 °F 22.1 °F 67% 30.15 in 10.0 mi NNE 8.1 mph - N/A   Overcast
8:33 AM 32.0 °F 25.6 °F 22.1 °F 67% 30.15 in 10.0 mi North 6.9 mph - N/A   Overcast
8:53 AM 32.0 °F 25.6 °F 22.8 °F 69% 30.16 in 10.0 mi NE 6.9 mph - N/A   Overcast
9:13 AM 32.0 °F 27.5 °F 22.6 °F 68% 30.16 in 10.0 mi NE 4.6 mph - N/A   Overcast
9:33 AM 32.0 °F 24.8 °F 22.1 °F 67% 30.17 in 10.0 mi NE 8.1 mph - N/A   Overcast
9:53 AM 32.0 °F 27.5 °F 21.2 °F 64% 30.17 in 10.0 mi ENE 4.6 mph - N/A   Overcast
10:13 AM 32.0 °F 25.6 °F 21.2 °F 64% 30.18 in 10.0 mi NE 6.9 mph - N/A   Overcast
10:33 AM 32.4 °F 27.9 °F 21.6 °F 64% 30.18 in 10.0 mi NNE 4.6 mph - N/A   Overcast
10:53 AM 32.9 °F 28.5 °F 21.4 °F 63% 30.17 in 10.0 mi NNE 4.6 mph - N/A   Overcast
11:13 AM 33.3 °F 28.9 °F 22.3 °F 64% 30.19 in 10.0 mi ENE 4.6 mph - N/A   Overcast
11:33 AM 33.3 °F - 21.7 °F 63% 30.19 in 10.0 mi Calm Calm - N/A   Overcast
11:53 AM 32.9 °F 29.8 °F 21.6 °F 63% 30.20 in 10.0 mi NE 3.5 mph - N/A   Overcast
12:13 PM 33.3 °F 30.2 °F 22.3 °F 64% 30.20 in 10.0 mi NNE 3.5 mph - N/A   Overcast
12:33 PM 33.6 °F 28.4 °F 22.3 °F 63% 30.22 in 10.0 mi NW 5.8 mph - N/A   Overcast
12:53 PM 33.8 °F 29.6 °F 22.3 °F 63% 30.22 in 10.0 mi North 4.6 mph - N/A   Overcast
1:13 PM 34.2 °F 31.2 °F 22.6 °F 63% 30.21 in 10.0 mi NNW 3.5 mph - N/A   Overcast
1:33 PM 34.5 °F 31.6 °F 22.3 °F 61% 30.20 in 10.0 mi NNW 3.5 mph - N/A   Overcast
1:53 PM 34.5 °F - 23.2 °F 63% 30.20 in 10.0 mi Calm Calm - N/A   Overcast
2:13 PM 34.7 °F 29.6 °F 22.8 °F 62% 30.20 in 10.0 mi NNW 5.8 mph - N/A   Overcast
2:33 PM 35.8 °F - 23.2 °F 60% 30.20 in 10.0 mi Calm Calm - N/A   Overcast
2:53 PM 36.0 °F 32.1 °F 22.8 °F 59% 30.19 in 10.0 mi North 4.6 mph - N/A   Overcast
3:13 PM 36.5 °F 32.7 °F 22.5 °F 57% 30.19 in 10.0 mi NNE 4.6 mph - N/A   Overcast
3:33 PM 36.5 °F 33.9 °F 21.9 °F 56% 30.18 in 10.0 mi NNE 3.5 mph - N/A   Overcast
3:53 PM 37.0 °F 34.5 °F 22.3 °F 55% 30.17 in 10.0 mi North 3.5 mph - N/A   Scattered Clouds
4:13 PM 37.4 °F - 22.8 °F 56% 30.17 in 10.0 mi Calm Calm - N/A   Clear
4:33 PM 38.1 °F - 22.6 °F 54% 30.16 in 10.0 mi Calm Calm - N/A   Clear
4:53 PM 38.3 °F 35.9 °F 22.6 °F 53% 30.15 in 10.0 mi NNE 3.5 mph - N/A   Clear
5:13 PM 38.5 °F 35.0 °F 22.1 °F 52% 30.15 in 10.0 mi NNE 4.6 mph - N/A   Clear
5:33 PM 38.5 °F 36.1 °F 22.1 °F 52% 30.14 in 10.0 mi East 3.5 mph - N/A   Clear
5:53 PM 38.7 °F - 22.5 °F 52% 30.13 in 10.0 mi Calm Calm - N/A   Clear
6:13 PM 38.5 °F - 21.6 °F 51% 30.13 in 10.0 mi Calm Calm - N/A   Clear
6:33 PM 36.9 °F 32.2 °F 24.6 °F 61% 30.13 in 10.0 mi South 5.8 mph - N/A   Clear
6:53 PM 36.3 °F 33.7 °F 24.3 °F 62% 30.15 in 10.0 mi South 3.5 mph - N/A   Clear
7:13 PM 36.1 °F 33.5 °F 25.2 °F 64% 30.14 in 10.0 mi South 3.5 mph - N/A   Clear
7:33 PM 35.6 °F 32.8 °F 24.3 °F 63% 30.14 in 10.0 mi South 3.5 mph - N/A   Clear
7:53 PM 35.1 °F - 23.9 °F 64% 30.15 in 10.0 mi Calm Calm - N/A   Clear
8:13 PM 34.7 °F - 24.3 °F 66% 30.14 in 10.0 mi Calm Calm - N/A   Clear
8:33 PM 34.2 °F - 23.9 °F 66% 30.14 in 10.0 mi Calm Calm - N/A   Clear
8:53 PM 35.1 °F - 22.1 °F 59% 30.15 in 10.0 mi Calm Calm - N/A   Clear
9:13 PM 32.7 °F - 22.6 °F 66% 30.15 in 10.0 mi Calm Calm - N/A   Clear
9:33 PM 31.1 °F - 23.7 °F 74% 30.15 in 10.0 mi Calm Calm - N/A   Clear
9:53 PM 31.1 °F - 23.5 °F 74% 30.15 in 10.0 mi Calm Calm - N/A   Clear
10:13 PM 30.9 °F - 23.7 °F 75% 30.15 in 10.0 mi Calm Calm - N/A   Clear
10:33 PM 30.4 °F - 24.4 °F 79% 30.15 in 10.0 mi Calm Calm - N/A   Clear
10:53 PM 30.9 °F - 25.3 °F 80% 30.14 in 10.0 mi Calm Calm - N/A   Clear
11:13 PM 30.7 °F - 25.9 °F 82% 30.14 in 10.0 mi Calm Calm - N/A   Clear
11:33 PM 30.7 °F - 25.7 °F 82% 30.14 in 10.0 mi Calm Calm - N/A   Clear
11:53 PM 30.4 °F - 26.1 °F 84% 30.14 in 10.0 mi Calm Calm - N/A   Clear